Orbital Elements at Epoch 2459200.5 (2020-Dec-17.0) TDB
Reference: JPL 15 (heliocentric ecliptic J2000)
Element | Value | Uncertainty (1-sigma) | Units |
e | .6129067169939962 | 8.0686e-07 | |
a | .7621949542856036 | 8.3724e-08 | au |
q | .2950405471450253 | 5.9737e-07 | au |
i | 44.43656825145823 | 0.00017566 | deg |
node | 156.904890220925 | 0.00011204 | deg |
peri | 150.2056799425208 | 7.2564e-05 | deg |
M | 94.28267591374772 | 0.00012116 | deg |
tp | 2459136.845819640899 (2020-Oct-14.34581964) | 7.2786e-05 | TDB |
period | 243.0510664572143 0.67 | 4.0047e-05 1.096e-07 | d yr |
n | 1.481170213517137 | 2.4405e-07 | deg/d |
Q | 1.229349361426182 | 1.3504e-07 | au |
|
| | Orbit Determination Parameters
Additional Information
|